Location: Recife
(8.0585°S, 34.8848°W)
Time: 09:44:43
(UTC-03:00)

Explorer 7 - Pass Details

Date: 21 April 2026
Orbit: 427 x 536 km, 50.2° (Epoch: 14 May)

Event Time Altitude Azimuth Distance (km) Brightness Sun altitude
Rises 22:44:04 0° 326° (NW) 2,522 - -80.7°
Reaches altitude 10° 22:46:16 10° 327° (NNW) 1,627 - -81.1°
Maximum altitude 22:49:56 75° 53° (NE) 479 - -81.9°
Drops below altitude 10° 22:53:28 10° 138° (SE) 1,577 - -82.7°
Sets 22:55:35 0° 140° (SE) 2,436 - -83.1°
